Weather in Pyatkovo

Russia / Kemerovo Oblast     55°51′17″N   84°56′48″E
temp.,
°C
wind,
m/s
gust,
m/s
humid.,
%
clouds,
%
prec.,
mm/h
press.,
hPa
HPBL,
m
14 april, wed
wed1401:00+1w41099100 1.1 1030450
04:00+1w4996100 0.0 1030362
07:000wsw61196100 0.0 1029406
10:00+1sw71299100 0.2 1028511
13:00+1wsw81699100 2.6 1025645
16:00+2wsw91796100 1.2 1022720
19:00+3wsw81595100 1.3 1022630
22:00+2wsw61297100 0.0 1023354
15 april, thu
thu1501:00+2wsw41099100 0.1 1024266
04:00+2wsw25100100 0.0 1025129
07:00+1wsw2299100 0.0 102530
10:00+2sw24100100 0.0 1026120
13:00+4sw3599100 0.0 1025277
16:00+5sw4795100 0.0 1023488
19:00+3sw4897100 0.0 1022328
22:00+3ssw4898100 0.0 1021229
16 april, fri
fri1601:00+3ssw499892 0.0 1020252
04:00+4sw51398100 0.0 1017365
07:00+4ssw6139681 0.0 1016311
10:00+7sw7149280 0.0 1014530
13:00+11sw91582100 0.0 1012831
16:00+14sw9147630 0.1 10091241
19:00+13wsw81474100 0.3 1009870
22:00+3nne71089100 0.8 1013618
17 april, sat
sat1701:00+1nne71091100 1.7 1016796
04:000n6883100 0.5 1017798
07:00−3nne6880100 0.5 1019749
10:00−3ne7867100 0.0 1019796
13:00−4nne7982100 2.3 1014845
16:00+1ene67455 0.0 10171332
19:00+1ene56565 0.0 10161332
22:00−2e48693 0.0 1016583
18 april, sun
sun1801:00−3ene36715 0.0 1015554
04:00−3ene2272100 0.0 1013419
07:00−3wsw1272100 0.0 1011438
10:00−1wsw2358100 0.0 1010641
13:00+3sw5848100 0.0 10081739
16:00+4w8114465 0.3 10081843
19:000sse235080 0.0 1019484
22:00−2w376472 0.0 1013217